Dewpoint
44 46 47 49 50 53 55 56 60 60 61 62 62 62 62 62 61 61 61 60 60 59
50 51 51 51 52 53 54 56 57 58 59 59 58 59 59 59 59 60 59 58 58 58
47 47 47 47 47 47 48 49 50 51 51 51 51 55 56 55 54 57 55 54 55 57
43 43 43 42 42 42 42 45 45 46 46 46 46 47 47 48 48 48 48 48 48 48
38 38 37 37 37 37 36 37 40 42 41 41 41 42 43 44 45 44 44 45 45 45
35 34 35 35 35 35 33 32 31 34 35 36 37 37 37 38 38 39 42 42 43 44
34 33 32 30 33 34 35 33 30 28 28 29 32 34 35 36 36 33 33 35 36 37
32 33 33 32 30 29 32 33 33 32 31 30 31 33 33 31 35 35 35 34 32 31
30 30 31 32 32 31 31 28 29 30 31 30 31 33 33 32 31 31 30 28 27 26
25 29 29 31 29 29 29 28 25 25 23 26 28 30 31 29 28 28 25 24 24 23
21 22 24 24 24 24 24 24 24 23 24 24 25 28 29 28 27 26 26 24 23 23
21 21 23 23 24 24 24 24 24 24 24 23 23 26 28 27 26 23 24 24 23 24
21 21 22 23 23 23 23 23 23 22 22 23 22 24 26 27 26 25 25 25 24 26
20 18 20 20 22 21 20 20 20 19 19 20 21 22 26 27 25 26 25 25 26 27
Wind_Speed
13 14 14 12 14 14 16 18 15 16 14 14 16 12 14 16 15 15 16 17 14 15
15 14 10 14 14 12 12 11 8 5 6 15 13 8 7 10 11 12 14 16 18 20
18 18 16 17 15 14 14 16 15 15 14 12 15 13 6 8 9 4 7 9 9 10
18 18 17 17 14 16 18 18 19 17 17 19 19 18 17 13 13 12 11 11 11 13
17 17 19 17 15 15 19 18 17 17 17 18 18 18 19 16 14 14 13 11 11 14
17 17 17 15 16 18 14 16 17 17 17 17 16 17 16 13 12 9 7 13 12 12
16 16 16 13 17 15 15 15 16 16 14 16 16 13 13 15 13 14 16 15 11 12
12 12 14 17 17 15 9 11 12 15 14 14 14 12 15 13 7 7 6 6 11 11
12 14 14 14 13 12 14 12 13 13 9 10 11 14 12 6 3 4 7 9 10 9
8 7 5 2 2 4 6 7 7 7 8 8 8 10 11 9 7 6 7 8 8 8
7 5 5 7 7 9 9 9 8 9 9 9 9 12 13 11 10 7 6 7 7 7
7 6 7 7 8 8 8 8 8 7 7 6 6 11 13 13 12 11 12 11 7 4
4 5 6 6 6 6 6 6 6 6 3 4 6 10 13 13 11 12 11 12 11 12
4 4 6 6 5 6 6 7 7 7 5 2 4 6 9 9 8 8 8 10 10 11
Wind_Direction
236 237 251 237 243 256 251 237 216 210 215 228 237 211 209 204 221 221 229 232 233 243
50 42 20 37 28 21 16 5 18 48 279 233 238 270 250 228 235 231 233 242 243 248
54 55 53 53 41 38 34 35 34 38 44 33 52 47 69 62 40 47 39 27 6 289
55 58 58 56 49 47 45 42 47 48 45 47 43 38 44 46 57 56 37 33 39 22
50 54 58 54 50 54 60 51 50 51 54 52 47 47 47 35 29 51 53 16 40 36
44 50 52 50 47 45 47 57 54 54 52 54 40 41 38 31 30 42 51 49 21 38
43 40 36 39 54 48 38 44 49 48 43 55 51 35 39 29 15 13 28 36 28 38
51 45 45 38 35 32 47 55 49 51 37 44 45 24 31 17 18 25 15 27 27 21
39 35 35 29 28 24 24 35 46 42 45 50 39 25 29 11 27 33 39 33 30 17
44 61 46 52 69 59 47 25 55 54 50 82 58 32 24 21 19 44 34 34 22 40
19 32 54 52 41 29 24 32 32 41 35 35 47 28 24 22 8 8 20 16 3 40
7 14 33 32 34 22 23 28 20 24 33 31 31 30 24 16 3 24 15 354 354 45
6 19 36 24 29 24 17 6 357 356 353 11 29 26 22 17 5 13 355 345 352 356
1 19 39 14 16 5 1 348 336 333 338 21 55 29 18 7 5 350 339 338 346 354